Time,TemperatureF,DewpointF,PressureIn,WindDirection,WindDirectionDegrees,WindSpeedMPH,WindSpeedGustMPH,Humidity,HourlyPrecipIn,Conditions,Clouds,dailyrainin,SoftwareType,DateUTC
2013-01-26 00:03:00,34.3,34.3,30.14,WNW,290,0.0,9.7,100,0.00,,,-99.99,VWS V12.07,2013-01-26 05:03:00,
2013-01-26 00:08:00,34.2,34.2,30.14,WSW,243,0.0,10.9,100,0.00,,,-99.99,VWS V12.07,2013-01-26 05:08:00,
2013-01-26 00:13:00,34.2,34.2,30.14,WSW,243,0.0,10.9,100,0.00,,,-99.99,VWS V12.07,2013-01-26 05:13:00,
2013-01-26 00:18:00,34.1,34.1,30.15,SW,228,0.0,0.0,100,0.00,,,-99.99,VWS V12.07,2013-01-26 05:18:00,
2013-01-26 00:23:00,34.0,34.0,30.14,West,259,3.5,13.5,100,0.00,,,-99.99,VWS V12.07,2013-01-26 05:23:00,
2013-01-26 00:28:00,34.0,34.0,30.15,SW,229,3.4,13.5,100,0.00,,,-99.99,VWS V12.07,2013-01-26 05:28:00,
2013-01-26 00:33:00,34.0,34.0,30.15,SW,219,0.0,15.7,100,0.00,,,-99.99,VWS V12.07,2013-01-26 05:33:00,
2013-01-26 00:38:00,34.0,34.0,30.15,West,276,4.5,4.5,100,0.00,,,-99.99,VWS V12.07,2013-01-26 05:38:00,
2013-01-26 00:43:00,34.0,34.0,30.15,WSW,256,0.0,16.2,100,0.00,,,-99.99,VWS V12.07,2013-01-26 05:43:00,
2013-01-26 00:48:00,34.0,34.0,30.15,WSW,255,0.0,20.3,100,0.00,,,-99.99,VWS V12.07,2013-01-26 05:48:00,
2013-01-26 00:53:00,34.0,34.0,30.15,WNW,294,0.0,20.3,100,0.00,,,-99.99,VWS V12.07,2013-01-26 05:53:00,
2013-01-26 00:58:00,33.9,33.9,30.15,WNW,295,4.7,4.9,100,0.00,,,-99.99,VWS V12.07,2013-01-26 05:58:00,
2013-01-26 01:03:00,33.9,33.9,30.14,West,267,0.0,20.4,100,0.00,,,-99.99,VWS V12.07,2013-01-26 06:03:00,
2013-01-26 01:08:00,33.9,33.9,30.14,WSW,249,0.0,20.4,100,0.00,,,-99.99,VWS V12.07,2013-01-26 06:08:00,
2013-01-26 01:13:00,33.8,33.8,30.15,WSW,249,0.0,20.4,100,0.00,,,-99.99,VWS V12.07,2013-01-26 06:13:00,
2013-01-26 01:18:00,33.8,33.8,30.14,SW,214,6.0,8.7,100,0.00,,,-99.99,VWS V12.07,2013-01-26 06:18:00,
2013-01-26 01:28:00,33.5,33.5,30.15,SSW,193,0.0,16.8,100,0.00,,,-99.99,VWS V12.07,2013-01-26 06:28:00,
2013-01-26 01:33:00,33.5,33.5,30.15,WNW,283,0.0,16.8,100,0.00,,,-99.99,VWS V12.07,2013-01-26 06:33:00,
2013-01-26 01:38:00,33.5,33.5,30.15,SW,226,0.0,0.0,100,0.00,,,-99.99,VWS V12.07,2013-01-26 06:38:00,
2013-01-26 01:43:00,33.4,33.4,30.15,West,273,0.0,3.5,100,0.00,,,-99.99,VWS V12.07,2013-01-26 06:43:00,
2013-01-26 01:48:00,33.4,33.4,30.15,West,281,4.8,7.8,100,0.00,,,-99.99,VWS V12.07,2013-01-26 06:48:00,
2013-01-26 01:53:00,33.3,33.3,30.15,WNW,292,0.0,13.3,100,0.00,,,-99.99,VWS V12.07,2013-01-26 06:53:00,
2013-01-26 01:58:00,33.2,33.2,30.15,West,269,0.0,0.0,100,0.00,,,-99.99,VWS V12.07,2013-01-26 06:58:00,
2013-01-26 02:03:00,33.2,33.2,30.15,West,269,0.0,0.0,100,0.00,,,-99.99,VWS V12.07,2013-01-26 07:03:00,
2013-01-26 02:08:00,33.2,33.2,30.15,West,269,0.0,0.0,100,0.00,,,-99.99,VWS V12.07,2013-01-26 07:08:00,
2013-01-26 02:13:00,33.2,33.2,30.16,West,269,0.0,0.0,100,0.00,,,-99.99,VWS V12.07,2013-01-26 07:13:00,
2013-01-26 02:18:00,33.2,33.2,30.15,West,269,0.0,0.0,100,0.00,,,-99.99,VWS V12.07,2013-01-26 07:18:00,
2013-01-26 02:23:00,33.1,33.1,30.15,West,269,0.0,0.0,100,0.00,,,-99.99,VWS V12.07,2013-01-26 07:23:00,
2013-01-26 02:28:00,33.1,33.1,30.15,West,269,0.0,0.0,100,0.00,,,-99.99,VWS V12.07,2013-01-26 07:28:00,
2013-01-26 02:33:00,33.0,33.0,30.16,West,269,0.0,0.0,100,0.00,,,-99.99,VWS V12.07,2013-01-26 07:33:00,
2013-01-26 02:38:00,32.9,32.9,30.15,West,269,0.0,0.0,100,0.00,,,-99.99,VWS V12.07,2013-01-26 07:38:00,
2013-01-26 02:43:00,32.8,32.8,30.15,West,269,0.0,0.0,100,0.00,,,-99.99,VWS V12.07,2013-01-26 07:43:00,
2013-01-26 02:48:00,32.7,32.7,30.15,West,269,0.0,0.0,100,0.00,,,-99.99,VWS V12.07,2013-01-26 07:48:00,
2013-01-26 02:53:00,32.6,32.6,30.15,West,269,0.0,0.0,100,0.00,,,-99.99,VWS V12.07,2013-01-26 07:53:00,
2013-01-26 02:58:00,32.6,32.6,30.15,West,269,0.0,0.0,100,0.00,,,-99.99,VWS V12.07,2013-01-26 07:58:00,
2013-01-26 03:03:00,32.5,32.5,30.15,West,269,0.0,0.0,100,0.00,,,-99.99,VWS V12.07,2013-01-26 08:03:00,
2013-01-26 03:08:00,32.3,32.3,30.15,West,269,0.0,0.0,100,0.00,,,-99.99,VWS V12.07,2013-01-26 08:08:00,
2013-01-26 03:13:00,32.1,32.1,30.15,West,269,0.0,0.0,100,0.00,,,-99.99,VWS V12.07,2013-01-26 08:13:00,
2013-01-26 03:18:00,32.0,32.0,30.15,West,269,0.0,0.0,100,0.00,,,-99.99,VWS V12.07,2013-01-26 08:18:00,
2013-01-26 03:23:00,31.9,31.9,30.15,West,269,0.0,0.0,100,0.00,,,-99.99,VWS V12.07,2013-01-26 08:23:00,
2013-01-26 03:28:00,31.8,31.8,30.15,West,269,0.0,0.0,100,0.00,,,-99.99,VWS V12.07,2013-01-26 08:28:00,
2013-01-26 03:33:00,31.7,31.7,30.15,West,269,0.0,0.0,100,0.00,,,-99.99,VWS V12.07,2013-01-26 08:33:00,
2013-01-26 03:38:00,31.6,31.6,30.16,West,269,0.0,0.0,100,0.00,,,-99.99,VWS V12.07,2013-01-26 08:38:00,
2013-01-26 03:43:00,31.5,31.5,30.16,West,269,0.0,0.0,100,0.00,,,-99.99,VWS V12.07,2013-01-26 08:43:00,
2013-01-26 03:48:00,31.5,31.5,30.15,West,269,0.0,0.0,100,0.00,,,-99.99,VWS V12.07,2013-01-26 08:48:00,
2013-01-26 03:53:00,31.4,31.4,30.15,West,269,0.0,0.0,100,0.00,,,-99.99,VWS V12.07,2013-01-26 08:53:00,
2013-01-26 03:58:00,31.2,31.2,30.16,West,269,0.0,0.0,100,0.00,,,-99.99,VWS V12.07,2013-01-26 08:58:00,
2013-01-26 04:03:00,31.0,31.0,30.16,West,269,0.0,0.0,100,0.00,,,-99.99,VWS V12.07,2013-01-26 09:03:00,
2013-01-26 04:08:00,30.9,30.9,30.16,West,269,0.0,0.0,100,0.00,,,-99.99,VWS V12.07,2013-01-26 09:08:00,
2013-01-26 04:13:00,31.0,31.0,30.16,West,269,0.0,0.0,100,0.00,,,-99.99,VWS V12.07,2013-01-26 09:13:00,
2013-01-26 04:18:00,30.9,30.9,30.16,West,269,0.0,0.0,100,0.00,,,-99.99,VWS V12.07,2013-01-26 09:18:00,
2013-01-26 04:23:00,30.8,30.8,30.15,West,269,0.0,0.0,100,0.00,,,-99.99,VWS V12.07,2013-01-26 09:23:00,
2013-01-26 04:28:00,30.6,30.6,30.16,West,269,0.0,0.0,100,0.00,,,-99.99,VWS V12.07,2013-01-26 09:28:00,
2013-01-26 04:33:00,30.5,30.5,30.15,West,269,0.0,0.0,100,0.00,,,-99.99,VWS V12.07,2013-01-26 09:33:00,
2013-01-26 04:38:00,30.5,30.5,30.16,West,269,0.0,0.0,100,0.00,,,-99.99,VWS V12.07,2013-01-26 09:38:00,
2013-01-26 04:43:00,30.4,30.4,30.16,West,269,0.0,0.0,100,0.00,,,-99.99,VWS V12.07,2013-01-26 09:43:00,
2013-01-26 04:48:00,30.4,30.4,30.15,West,269,0.0,0.0,100,0.00,,,-99.99,VWS V12.07,2013-01-26 09:48:00,
2013-01-26 04:53:00,30.2,30.2,30.15,West,269,0.0,0.0,100,0.00,,,-99.99,VWS V12.07,2013-01-26 09:53:00,
2013-01-26 04:58:00,30.0,30.0,30.16,West,269,0.0,0.0,100,0.00,,,-99.99,VWS V12.07,2013-01-26 09:58:00,
2013-01-26 05:03:00,30.1,30.1,30.15,West,269,0.0,0.0,100,0.00,,,-99.99,VWS V12.07,2013-01-26 10:03:00,
2013-01-26 05:08:00,30.0,30.0,30.16,West,269,0.0,0.0,100,0.00,,,-99.99,VWS V12.07,2013-01-26 10:08:00,
2013-01-26 05:13:00,29.9,29.9,30.16,West,269,0.0,0.0,100,0.00,,,-99.99,VWS V12.07,2013-01-26 10:13:00,
2013-01-26 05:18:00,29.8,29.8,30.15,West,269,0.0,0.0,100,0.00,,,-99.99,VWS V12.07,2013-01-26 10:18:00,
2013-01-26 05:23:00,29.6,29.6,30.16,West,269,0.0,0.0,100,0.00,,,-99.99,VWS V12.07,2013-01-26 10:23:00,
2013-01-26 05:28:00,29.7,29.7,30.16,West,269,0.0,0.0,100,0.00,,,-99.99,VWS V12.07,2013-01-26 10:28:00,
2013-01-26 05:33:00,29.5,29.5,30.16,West,269,0.0,0.0,100,0.00,,,-99.99,VWS V12.07,2013-01-26 10:33:00,
2013-01-26 05:38:00,29.5,29.5,30.17,West,269,0.0,0.0,100,0.00,,,-99.99,VWS V12.07,2013-01-26 10:38:00,
2013-01-26 05:43:00,29.4,29.4,30.17,West,269,0.0,0.0,100,0.00,,,-99.99,VWS V12.07,2013-01-26 10:43:00,
2013-01-26 05:48:00,29.3,29.3,30.16,West,269,0.0,0.0,100,0.00,,,-99.99,VWS V12.07,2013-01-26 10:48:00,
2013-01-26 05:53:00,29.3,29.3,30.16,West,269,0.0,0.0,100,0.00,,,-99.99,VWS V12.07,2013-01-26 10:53:00,
2013-01-26 06:03:00,29.1,29.1,30.18,West,269,0.0,0.0,100,0.00,,,-99.99,VWS V12.07,2013-01-26 11:03:00,
2013-01-26 06:08:00,29.0,29.0,30.18,West,269,0.0,0.0,100,0.00,,,-99.99,VWS V12.07,2013-01-26 11:08:00,
2013-01-26 06:13:00,29.0,29.0,30.18,West,269,0.0,0.0,100,0.00,,,-99.99,VWS V12.07,2013-01-26 11:13:00,
2013-01-26 06:18:00,28.9,28.9,30.18,West,269,0.0,0.0,100,0.00,,,-99.99,VWS V12.07,2013-01-26 11:18:00,
2013-01-26 06:23:00,28.8,28.8,30.18,West,269,0.0,0.0,100,0.00,,,-99.99,VWS V12.07,2013-01-26 11:23:00,
2013-01-26 06:28:00,28.8,28.8,30.18,West,269,0.0,0.0,100,0.00,,,-99.99,VWS V12.07,2013-01-26 11:28:00,
2013-01-26 06:33:00,28.8,28.8,30.19,West,269,0.0,0.0,100,0.00,,,-99.99,VWS V12.07,2013-01-26 11:33:00,
2013-01-26 06:43:00,28.3,28.3,30.19,West,269,0.0,0.0,100,0.00,,,-99.99,VWS V12.07,2013-01-26 11:43:00,
2013-01-26 06:48:00,28.3,28.3,30.19,West,269,0.0,0.0,100,0.00,,,-99.99,VWS V12.07,2013-01-26 11:48:00,
2013-01-26 06:53:00,28.4,28.4,30.19,West,269,0.0,0.0,100,0.00,,,-99.99,VWS V12.07,2013-01-26 11:53:00,
2013-01-26 06:58:00,28.3,28.3,30.19,West,269,0.0,0.0,100,0.00,,,-99.99,VWS V12.07,2013-01-26 11:58:00,
2013-01-26 07:03:00,28.4,28.4,30.20,West,269,0.0,0.0,100,0.00,,,-99.99,VWS V12.07,2013-01-26 12:03:00,
2013-01-26 07:08:00,28.1,28.1,30.20,West,269,0.0,0.0,100,0.00,,,-99.99,VWS V12.07,2013-01-26 12:08:00,
2013-01-26 07:13:00,28.2,28.2,30.20,West,269,0.0,0.0,100,0.00,,,-99.99,VWS V12.07,2013-01-26 12:13:00,
2013-01-26 07:23:00,28.2,28.2,30.20,West,269,0.0,0.0,100,0.00,,,-99.99,VWS V12.07,2013-01-26 12:23:00,
2013-01-26 07:28:00,28.3,28.3,30.20,West,269,0.0,0.0,100,0.00,,,-99.99,VWS V12.07,2013-01-26 12:28:00,
2013-01-26 07:33:00,28.2,28.2,30.20,West,269,0.0,0.0,100,0.00,,,-99.99,VWS V12.07,2013-01-26 12:33:00,
2013-01-26 07:38:00,28.3,28.3,30.20,West,269,0.0,0.0,100,0.00,,,-99.99,VWS V12.07,2013-01-26 12:38:00,
2013-01-26 07:43:00,28.4,28.4,30.20,West,269,0.0,0.0,100,0.00,,,-99.99,VWS V12.07,2013-01-26 12:43:00,
2013-01-26 07:48:00,28.4,28.4,30.20,West,269,0.0,0.0,100,0.00,,,-99.99,VWS V12.07,2013-01-26 12:48:00,
2013-01-26 07:53:00,28.5,28.5,30.20,West,269,0.0,0.0,100,0.00,,,-99.99,VWS V12.07,2013-01-26 12:53:00,
2013-01-26 07:58:00,28.4,28.4,30.20,West,269,0.0,0.0,100,0.00,,,-99.99,VWS V12.07,2013-01-26 12:58:00,
2013-01-26 08:03:00,28.6,28.6,30.20,West,269,0.0,0.0,100,0.00,,,-99.99,VWS V12.07,2013-01-26 13:03:00,
2013-01-26 08:08:00,28.7,28.7,30.20,West,269,0.0,0.0,100,0.00,,,-99.99,VWS V12.07,2013-01-26 13:08:00,
2013-01-26 08:13:00,28.8,28.8,30.20,West,269,0.0,0.0,100,0.00,,,-99.99,VWS V12.07,2013-01-26 13:13:00,
2013-01-26 08:18:00,28.8,28.8,30.20,West,269,0.0,0.0,100,0.00,,,-99.99,VWS V12.07,2013-01-26 13:18:00,
2013-01-26 08:23:00,28.8,28.8,30.20,West,269,0.0,0.0,100,0.00,,,-99.99,VWS V12.07,2013-01-26 13:23:00,
2013-01-26 08:28:00,28.8,28.8,30.20,West,269,0.0,0.0,100,0.00,,,-99.99,VWS V12.07,2013-01-26 13:28:00,
2013-01-26 08:33:00,29.0,29.0,30.20,West,269,0.0,0.0,100,0.00,,,-99.99,VWS V12.07,2013-01-26 13:33:00,
2013-01-26 08:38:00,29.1,29.1,30.20,West,269,0.0,0.0,100,0.00,,,-99.99,VWS V12.07,2013-01-26 13:38:00,
2013-01-26 08:43:00,29.2,29.2,30.21,West,269,0.0,0.0,100,0.00,,,-99.99,VWS V12.07,2013-01-26 13:43:00,
2013-01-26 08:48:00,29.4,29.4,30.21,West,269,0.0,0.0,100,0.00,,,-99.99,VWS V12.07,2013-01-26 13:48:00,
2013-01-26 08:53:00,29.5,29.4,30.22,West,269,0.0,0.0,100,0.00,,,-99.99,VWS V12.07,2013-01-26 13:53:00,
2013-01-26 08:58:00,29.5,29.4,30.22,West,269,0.0,0.0,100,0.00,,,-99.99,VWS V12.07,2013-01-26 13:58:00,
2013-01-26 09:03:00,29.4,29.3,30.22,West,269,0.0,0.0,100,0.00,,,-99.99,VWS V12.07,2013-01-26 14:03:00,
2013-01-26 09:08:00,29.5,29.2,30.22,West,269,0.0,0.0,99,0.00,,,-99.99,VWS V12.07,2013-01-26 14:08:00,
2013-01-26 09:13:00,29.4,29.1,30.23,West,269,0.0,0.0,99,0.00,,,-99.99,VWS V12.07,2013-01-26 14:13:00,
2013-01-26 09:18:00,29.5,29.3,30.23,West,269,0.0,0.0,99,0.00,,,-99.99,VWS V12.07,2013-01-26 14:18:00,
2013-01-26 09:23:00,29.6,29.4,30.23,West,269,0.0,0.0,99,0.00,,,-99.99,VWS V12.07,2013-01-26 14:23:00,
2013-01-26 09:28:00,29.7,29.4,30.23,West,269,0.0,0.0,99,0.00,,,-99.99,VWS V12.07,2013-01-26 14:28:00,
2013-01-26 09:33:00,29.6,29.4,30.23,West,269,0.0,0.0,99,0.00,,,-99.99,VWS V12.07,2013-01-26 14:33:00,
2013-01-26 09:38:00,29.7,29.5,30.24,West,269,0.0,0.0,99,0.00,,,-99.99,VWS V12.07,2013-01-26 14:38:00,
2013-01-26 09:43:00,29.7,29.5,30.24,West,269,0.0,0.0,99,0.00,,,-99.99,VWS V12.07,2013-01-26 14:43:00,
2013-01-26 09:48:00,29.7,29.5,30.24,West,269,0.0,0.0,99,0.00,,,-99.99,VWS V12.07,2013-01-26 14:48:00,
2013-01-26 09:58:00,30.2,29.9,30.25,West,269,0.0,0.0,99,0.00,,,-99.99,VWS V12.07,2013-01-26 14:58:00,
2013-01-26 10:03:00,30.4,30.0,30.25,West,269,0.0,0.0,98,0.00,,,-99.99,VWS V12.07,2013-01-26 15:03:00,
2013-01-26 10:08:00,30.6,30.0,30.25,West,269,0.0,0.0,98,0.00,,,-99.99,VWS V12.07,2013-01-26 15:08:00,
2013-01-26 10:13:00,30.8,30.1,30.25,West,269,0.0,0.0,97,0.00,,,-99.99,VWS V12.07,2013-01-26 15:13:00,
2013-01-26 10:18:00,31.2,30.5,30.25,West,269,0.0,0.0,97,0.00,,,-99.99,VWS V12.07,2013-01-26 15:18:00,
2013-01-26 10:23:00,31.4,30.5,30.26,WSW,256,0.0,6.4,96,0.00,,,-99.99,VWS V12.07,2013-01-26 15:23:00,
2013-01-26 10:28:00,31.6,30.6,30.26,WSW,256,0.0,6.4,96,0.00,,,-99.99,VWS V12.07,2013-01-26 15:28:00,
2013-01-26 10:33:00,31.8,30.6,30.26,NW,319,4.5,9.6,95,0.00,,,-99.99,VWS V12.07,2013-01-26 15:33:00,
2013-01-26 10:38:00,32.0,30.6,30.26,WSW,249,0.0,0.0,94,0.00,,,-99.99,VWS V12.07,2013-01-26 15:38:00,
2013-01-26 10:43:00,32.1,30.6,30.26,WSW,239,0.0,8.4,94,0.00,,,-99.99,VWS V12.07,2013-01-26 15:43:00,
2013-01-26 10:48:00,32.4,30.8,30.26,WSW,239,0.0,8.4,94,0.00,,,-99.99,VWS V12.07,2013-01-26 15:48:00,
2013-01-26 10:53:00,32.7,30.9,30.26,WSW,239,0.0,8.4,93,0.00,,,-99.99,VWS V12.07,2013-01-26 15:53:00,
2013-01-26 10:58:00,32.9,31.0,30.27,WSW,252,0.0,4.5,93,0.00,,,-99.99,VWS V12.07,2013-01-26 15:58:00,
2013-01-26 11:03:00,33.1,31.0,30.27,WSW,252,0.0,4.5,92,0.00,,,-99.99,VWS V12.07,2013-01-26 16:03:00,
2013-01-26 11:08:00,33.3,31.1,30.27,WSW,256,0.0,4.5,92,0.00,,,-99.99,VWS V12.07,2013-01-26 16:08:00,
2013-01-26 11:13:00,33.4,30.8,30.27,WSW,256,0.0,4.5,90,0.00,,,-99.99,VWS V12.07,2013-01-26 16:13:00,
2013-01-26 11:18:00,33.6,30.9,30.27,WNW,288,0.0,0.0,90,0.00,,,-99.99,VWS V12.07,2013-01-26 16:18:00,
2013-01-26 11:23:00,33.8,31.0,30.27,WNW,288,0.0,0.0,89,0.00,,,-99.99,VWS V12.07,2013-01-26 16:23:00,
2013-01-26 11:28:00,34.0,31.1,30.28,WNW,288,0.0,4.3,89,0.00,,,-99.99,VWS V12.07,2013-01-26 16:28:00,
2013-01-26 11:33:00,34.2,31.0,30.27,SW,225,0.0,4.3,88,0.00,,,-99.99,VWS V12.07,2013-01-26 16:33:00,
2013-01-26 11:38:00,34.3,30.9,30.27,WSW,242,0.0,0.0,87,0.00,,,-99.99,VWS V12.07,2013-01-26 16:38:00,
2013-01-26 11:43:00,34.2,30.4,30.27,West,267,0.0,9.4,86,0.00,,,-99.99,VWS V12.07,2013-01-26 16:43:00,
2013-01-26 11:48:00,34.2,30.2,30.27,West,267,0.0,9.4,85,0.00,,,-99.99,VWS V12.07,2013-01-26 16:48:00,
2013-01-26 11:53:00,34.3,30.1,30.27,West,267,0.0,9.4,84,0.00,,,-99.99,VWS V12.07,2013-01-26 16:53:00,
2013-01-26 12:03:00,34.8,30.6,30.27,WNW,283,0.0,6.7,84,0.00,,,-99.99,VWS V12.07,2013-01-26 17:03:00,
2013-01-26 12:08:00,35.0,30.0,30.27,WNW,283,0.0,6.7,82,0.00,,,-99.99,VWS V12.07,2013-01-26 17:08:00,
2013-01-26 12:13:00,35.3,30.3,30.26,WNW,283,0.0,6.7,82,0.00,,,-99.99,VWS V12.07,2013-01-26 17:13:00,
2013-01-26 12:18:00,35.5,30.2,30.27,WNW,283,0.0,0.0,81,0.00,,,-99.99,VWS V12.07,2013-01-26 17:18:00,
2013-01-26 12:23:00,35.6,29.7,30.27,WSW,245,4.3,9.7,79,0.00,,,-99.99,VWS V12.07,2013-01-26 17:23:00,
2013-01-26 12:28:00,35.6,29.5,30.27,West,274,5.8,12.3,78,0.00,,,-99.99,VWS V12.07,2013-01-26 17:28:00,
2013-01-26 12:33:00,35.7,29.5,30.27,West,271,5.0,12.3,78,0.00,,,-99.99,VWS V12.07,2013-01-26 17:33:00,
2013-01-26 12:38:00,35.6,29.0,30.26,WSW,239,7.3,7.3,77,0.00,,,-99.99,VWS V12.07,2013-01-26 17:38:00,
2013-01-26 12:43:00,35.5,28.6,30.26,WSW,246,4.2,10.2,76,0.00,,,-99.99,VWS V12.07,2013-01-26 17:43:00,
2013-01-26 12:48:00,35.4,28.6,30.26,WSW,255,3.5,10.2,76,0.00,,,-99.99,VWS V12.07,2013-01-26 17:48:00,
2013-01-26 12:53:00,35.6,28.2,30.26,SW,231,3.0,10.2,74,0.00,,,-99.99,VWS V12.07,2013-01-26 17:53:00,
2013-01-26 12:58:00,35.9,28.6,30.25,SW,233,5.2,5.2,74,0.00,,,-99.99,VWS V12.07,2013-01-26 17:58:00,
2013-01-26 13:03:00,36.1,28.4,30.25,WSW,253,1.9,8.8,73,0.00,,,-99.99,VWS V12.07,2013-01-26 18:03:00,
2013-01-26 13:08:00,36.4,28.7,30.25,SSW,205,0.0,8.8,73,0.00,,,-99.99,VWS V12.07,2013-01-26 18:08:00,
2013-01-26 13:18:00,36.4,27.4,30.25,WNW,290,0.0,0.0,70,0.00,,,-99.99,VWS V12.07,2013-01-26 18:18:00,
2013-01-26 13:23:00,36.4,27.0,30.25,NW,312,2.1,10.2,68,0.00,,,-99.99,VWS V12.07,2013-01-26 18:23:00,
2013-01-26 13:28:00,36.5,26.6,30.25,WNW,283,6.2,10.2,67,0.00,,,-99.99,VWS V12.07,2013-01-26 18:28:00,
2013-01-26 13:33:00,36.7,27.3,30.25,WNW,292,5.3,10.2,68,0.00,,,-99.99,VWS V12.07,2013-01-26 18:33:00,
2013-01-26 13:38:00,37.1,27.6,30.25,NW,316,2.6,3.2,68,0.00,,,-99.99,VWS V12.07,2013-01-26 18:38:00,
2013-01-26 13:43:00,37.3,27.4,30.25,WSW,256,5.6,10.4,67,0.00,,,-99.99,VWS V12.07,2013-01-26 18:43:00,
2013-01-26 13:48:00,37.5,27.2,30.25,West,277,0.0,10.4,66,0.00,,,-99.99,VWS V12.07,2013-01-26 18:48:00,
2013-01-26 13:53:00,37.6,27.8,30.25,West,274,5.3,10.4,67,0.00,,,-99.99,VWS V12.07,2013-01-26 18:53:00,
2013-01-26 13:58:00,37.7,28.2,30.25,WNW,298,7.0,7.0,68,0.00,,,-99.99,VWS V12.07,2013-01-26 18:58:00,
2013-01-26 14:03:00,37.8,28.2,30.25,WSW,243,3.2,8.1,68,0.00,,,-99.99,VWS V12.07,2013-01-26 19:03:00,
2013-01-26 14:08:00,38.0,27.8,30.25,West,270,11.7,17.3,66,0.00,,,-99.99,VWS V12.07,2013-01-26 19:08:00,
2013-01-26 14:13:00,37.9,27.1,30.25,West,266,7.3,17.3,65,0.00,,,-99.99,VWS V12.07,2013-01-26 19:13:00,
2013-01-26 14:18:00,38.0,27.2,30.25,West,266,8.0,8.0,65,0.00,,,-99.99,VWS V12.07,2013-01-26 19:18:00,
2013-01-26 14:23:00,38.0,27.2,30.25,WSW,256,6.6,10.4,65,0.00,,,-99.99,VWS V12.07,2013-01-26 19:23:00,
2013-01-26 14:28:00,38.2,27.1,30.25,WSW,242,6.0,10.4,64,0.00,,,-99.99,VWS V12.07,2013-01-26 19:28:00,
2013-01-26 14:33:00,38.4,26.8,30.25,West,266,6.3,12.6,63,0.00,,,-99.99,VWS V12.07,2013-01-26 19:33:00,
2013-01-26 14:38:00,38.5,26.9,30.25,West,273,5.0,5.2,63,0.00,,,-99.99,VWS V12.07,2013-01-26 19:38:00,
2013-01-26 14:43:00,38.7,26.8,30.25,West,266,6.6,8.8,62,0.00,,,-99.99,VWS V12.07,2013-01-26 19:43:00,
2013-01-26 14:48:00,38.9,27.1,30.25,West,269,5.4,9.7,62,0.00,,,-99.99,VWS V12.07,2013-01-26 19:48:00,
2013-01-26 14:53:00,39.2,27.2,30.25,West,273,5.8,9.7,62,0.00,,,-99.99,VWS V12.07,2013-01-26 19:53:00,
2013-01-26 14:58:00,39.4,27.0,30.26,West,266,7.4,7.4,61,0.00,,,-99.99,VWS V12.07,2013-01-26 19:58:00,
2013-01-26 15:03:00,39.5,27.0,30.26,West,273,5.7,9.6,60,0.00,,,-99.99,VWS V12.07,2013-01-26 20:03:00,
2013-01-26 15:08:00,39.6,26.8,30.26,West,263,5.0,9.6,60,0.00,,,-99.99,VWS V12.07,2013-01-26 20:08:00,
2013-01-26 15:13:00,39.8,26.7,30.26,West,271,7.2,14.5,59,0.00,,,-99.99,VWS V12.07,2013-01-26 20:13:00,
2013-01-26 15:18:00,39.9,26.7,30.26,West,277,12.3,12.3,59,0.00,,,-99.99,VWS V12.07,2013-01-26 20:18:00,
2013-01-26 15:28:00,40.0,26.0,30.26,WNW,290,8.2,12.3,57,0.00,,,-99.99,VWS V12.07,2013-01-26 20:28:00,
2013-01-26 15:38:00,40.2,25.2,30.26,West,278,9.9,11.2,55,0.00,,,-99.99,VWS V12.07,2013-01-26 20:38:00,
2013-01-26 15:48:00,40.4,25.9,30.26,SW,233,3.3,12.0,56,0.00,,,-99.99,VWS V12.07,2013-01-26 20:48:00,
2013-01-26 15:53:00,40.6,26.3,30.27,WSW,242,5.2,12.0,56,0.00,,,-99.99,VWS V12.07,2013-01-26 20:53:00,
2013-01-26 15:58:00,40.6,26.3,30.27,West,259,5.5,5.5,56,0.00,,,-99.99,VWS V12.07,2013-01-26 20:58:00,
2013-01-26 16:08:00,40.7,26.8,30.27,West,280,7.1,8.2,57,0.00,,,-99.99,VWS V12.07,2013-01-26 21:08:00,
2013-01-26 16:13:00,40.9,26.9,30.27,West,264,6.0,8.6,57,0.00,,,-99.99,VWS V12.07,2013-01-26 21:13:00,
2013-01-26 16:18:00,41.1,26.7,30.27,WSW,256,4.3,4.3,56,0.00,,,-99.99,VWS V12.07,2013-01-26 21:18:00,
2013-01-26 16:23:00,41.3,26.5,30.27,WSW,239,7.0,11.5,55,0.00,,,-99.99,VWS V12.07,2013-01-26 21:23:00,
2013-01-26 16:28:00,41.3,25.9,30.27,WSW,257,5.5,11.9,54,0.00,,,-99.99,VWS V12.07,2013-01-26 21:28:00,
2013-01-26 16:38:00,41.4,25.7,30.27,WSW,255,5.1,5.1,53,0.00,,,-99.99,VWS V12.07,2013-01-26 21:38:00,
2013-01-26 16:43:00,41.2,25.8,30.28,West,266,6.3,8.4,54,0.00,,,-99.99,VWS V12.07,2013-01-26 21:43:00,
2013-01-26 16:48:00,41.0,25.2,30.28,West,267,7.3,12.7,53,0.00,,,-99.99,VWS V12.07,2013-01-26 21:48:00,
2013-01-26 16:58:00,40.5,25.2,30.28,West,270,5.2,5.2,54,0.00,,,-99.99,VWS V12.07,2013-01-26 21:58:00,
2013-01-26 17:03:00,40.3,25.0,30.28,West,259,5.8,10.7,54,0.00,,,-99.99,VWS V12.07,2013-01-26 22:03:00,
2013-01-26 17:08:00,40.0,24.9,30.28,WNW,291,7.1,10.7,54,0.00,,,-99.99,VWS V12.07,2013-01-26 22:08:00,
2013-01-26 17:13:00,39.5,24.2,30.28,West,260,6.4,10.7,54,0.00,,,-99.99,VWS V12.07,2013-01-26 22:13:00,
2013-01-26 17:18:00,39.2,24.4,30.28,West,260,6.6,6.6,55,0.00,,,-99.99,VWS V12.07,2013-01-26 22:18:00,
2013-01-26 17:23:00,38.9,24.2,30.28,West,264,7.3,12.3,55,0.00,,,-99.99,VWS V12.07,2013-01-26 22:23:00,
2013-01-26 17:33:00,38.4,24.5,30.28,WSW,255,7.3,15.2,57,0.00,,,-99.99,VWS V12.07,2013-01-26 22:33:00,
2013-01-26 17:38:00,38.2,24.6,30.28,WSW,252,7.5,7.8,58,0.00,,,-99.99,VWS V12.07,2013-01-26 22:38:00,
2013-01-26 17:48:00,37.7,24.7,30.29,WSW,242,3.5,11.1,59,0.00,,,-99.99,VWS V12.07,2013-01-26 22:48:00,
2013-01-26 17:53:00,37.5,25.0,30.29,West,270,0.0,11.1,60,0.00,,,-99.99,VWS V12.07,2013-01-26 22:53:00,
2013-01-26 18:03:00,36.9,25.1,30.29,SW,231,0.0,8.7,62,0.00,,,-99.99,VWS V12.07,2013-01-26 23:03:00,
2013-01-26 18:08:00,36.7,25.2,30.29,West,271,3.5,8.7,63,0.00,,,-99.99,VWS V12.07,2013-01-26 23:08:00,
2013-01-26 18:13:00,36.5,25.0,30.29,WSW,239,0.0,8.7,63,0.00,,,-99.99,VWS V12.07,2013-01-26 23:13:00,
2013-01-26 18:18:00,36.3,25.0,30.30,WSW,239,0.0,0.0,63,0.00,,,-99.99,VWS V12.07,2013-01-26 23:18:00,
2013-01-26 18:23:00,36.1,25.1,30.30,WSW,239,0.0,0.0,64,0.00,,,-99.99,VWS V12.07,2013-01-26 23:23:00,
2013-01-26 18:28:00,35.8,25.2,30.30,WSW,239,0.0,0.0,65,0.00,,,-99.99,VWS V12.07,2013-01-26 23:28:00,
2013-01-26 18:33:00,35.7,25.7,30.30,WSW,239,0.0,0.0,67,0.00,,,-99.99,VWS V12.07,2013-01-26 23:33:00,
2013-01-26 18:38:00,35.4,25.8,30.30,WSW,245,0.0,0.0,68,0.00,,,-99.99,VWS V12.07,2013-01-26 23:38:00,
2013-01-26 18:43:00,35.2,25.8,30.30,WSW,245,0.0,0.0,68,0.00,,,-99.99,VWS V12.07,2013-01-26 23:43:00,
2013-01-26 18:48:00,35.0,25.8,30.30,WSW,245,0.0,0.0,69,0.00,,,-99.99,VWS V12.07,2013-01-26 23:48:00,
2013-01-26 18:53:00,35.0,26.1,30.30,WSW,245,0.0,0.0,70,0.00,,,-99.99,VWS V12.07,2013-01-26 23:53:00,
2013-01-26 18:58:00,34.9,26.4,30.29,WSW,245,0.0,0.0,71,0.00,,,-99.99,VWS V12.07,2013-01-26 23:58:00,
2013-01-26 19:03:00,34.8,26.6,30.30,WSW,245,0.0,0.0,72,0.00,,,-99.99,VWS V12.07,2013-01-27 00:03:00,
2013-01-26 19:08:00,34.7,26.8,30.30,WSW,245,0.0,0.0,72,0.00,,,-99.99,VWS V12.07,2013-01-27 00:08:00,
2013-01-26 19:13:00,34.6,26.8,30.31,WSW,245,0.0,0.0,73,0.00,,,-99.99,VWS V12.07,2013-01-27 00:13:00,
2013-01-26 19:18:00,34.6,26.8,30.31,WSW,245,0.0,0.0,73,0.00,,,-99.99,VWS V12.07,2013-01-27 00:18:00,
2013-01-26 19:23:00,34.5,26.4,30.31,WSW,245,0.0,0.0,72,0.00,,,-99.99,VWS V12.07,2013-01-27 00:23:00,
2013-01-26 19:28:00,34.6,26.4,30.31,WSW,245,0.0,0.0,72,0.00,,,-99.99,VWS V12.07,2013-01-27 00:28:00,
2013-01-26 19:33:00,34.6,26.2,30.31,WSW,246,0.0,1.7,71,0.00,,,-99.99,VWS V12.07,2013-01-27 00:33:00,
2013-01-26 19:43:00,34.4,26.1,30.31,WSW,248,0.0,5.7,72,0.00,,,-99.99,VWS V12.07,2013-01-27 00:43:00,
2013-01-26 19:48:00,34.4,25.8,30.31,WSW,248,0.0,5.7,70,0.00,,,-99.99,VWS V12.07,2013-01-27 00:48:00,
2013-01-26 19:58:00,34.7,23.9,30.31,WSW,248,0.0,0.0,64,0.00,,,-99.99,VWS V12.07,2013-01-27 00:58:00,
2013-01-26 20:03:00,34.7,23.3,30.31,WSW,248,0.0,0.0,63,0.00,,,-99.99,VWS V12.07,2013-01-27 01:03:00,
2013-01-26 20:08:00,34.7,23.1,30.31,WSW,248,0.0,0.0,62,0.00,,,-99.99,VWS V12.07,2013-01-27 01:08:00,
2013-01-26 20:13:00,34.7,23.0,30.31,WSW,248,0.0,0.0,62,0.00,,,-99.99,VWS V12.07,2013-01-27 01:13:00,
2013-01-26 20:18:00,34.5,23.9,30.31,West,269,0.0,0.0,65,0.00,,,-99.99,VWS V12.07,2013-01-27 01:18:00,
2013-01-26 20:23:00,34.1,25.1,30.31,West,269,0.0,0.0,69,0.00,,,-99.99,VWS V12.07,2013-01-27 01:23:00,
2013-01-26 20:28:00,33.8,25.7,30.31,West,269,0.0,0.0,72,0.00,,,-99.99,VWS V12.07,2013-01-27 01:28:00,
2013-01-26 20:33:00,33.5,26.0,30.31,WSW,242,4.7,8.9,74,0.00,,,-99.99,VWS V12.07,2013-01-27 01:33:00,
2013-01-26 20:38:00,33.4,26.3,30.31,West,259,5.0,5.2,75,0.00,,,-99.99,VWS V12.07,2013-01-27 01:38:00,
2013-01-26 20:43:00,33.4,26.8,30.31,West,259,5.7,6.4,76,0.00,,,-99.99,VWS V12.07,2013-01-27 01:43:00,
2013-01-26 20:48:00,33.3,26.7,30.31,West,277,6.0,6.5,76,0.00,,,-99.99,VWS V12.07,2013-01-27 01:48:00,
2013-01-26 20:53:00,33.3,26.0,30.31,WSW,252,0.0,6.8,74,0.00,,,-99.99,VWS V12.07,2013-01-27 01:53:00,
2013-01-26 20:58:00,33.5,24.2,30.31,WSW,256,0.0,0.0,68,0.00,,,-99.99,VWS V12.07,2013-01-27 01:58:00,
2013-01-26 21:03:00,33.8,23.0,30.31,WSW,256,0.0,5.3,64,0.00,,,-99.99,VWS V12.07,2013-01-27 02:03:00,
2013-01-26 21:08:00,34.1,22.1,30.31,WSW,256,0.0,5.3,61,0.00,,,-99.99,VWS V12.07,2013-01-27 02:08:00,
2013-01-26 21:13:00,34.3,21.9,30.32,WSW,256,0.0,5.3,60,0.00,,,-99.99,VWS V12.07,2013-01-27 02:13:00,
2013-01-26 21:18:00,34.3,22.1,30.32,WSW,256,0.0,0.0,61,0.00,,,-99.99,VWS V12.07,2013-01-27 02:18:00,
2013-01-26 21:23:00,34.3,22.3,30.32,WSW,256,0.0,0.0,61,0.00,,,-99.99,VWS V12.07,2013-01-27 02:23:00,
2013-01-26 21:28:00,34.3,21.9,30.32,WSW,256,0.0,0.0,60,0.00,,,-99.99,VWS V12.07,2013-01-27 02:28:00,
2013-01-26 21:33:00,34.4,21.5,30.33,WSW,256,0.0,0.0,59,0.00,,,-99.99,VWS V12.07,2013-01-27 02:33:00,
2013-01-26 21:38:00,34.4,21.4,30.33,WSW,256,0.0,0.0,59,0.00,,,-99.99,VWS V12.07,2013-01-27 02:38:00,
2013-01-26 21:43:00,34.4,21.2,30.33,WSW,256,0.0,0.0,58,0.00,,,-99.99,VWS V12.07,2013-01-27 02:43:00,
2013-01-26 21:48:00,34.4,21.2,30.33,WSW,256,0.0,0.0,58,0.00,,,-99.99,VWS V12.07,2013-01-27 02:48:00,
2013-01-26 21:53:00,34.4,21.0,30.33,WSW,256,0.0,0.0,58,0.00,,,-99.99,VWS V12.07,2013-01-27 02:53:00,
2013-01-26 21:58:00,34.3,21.1,30.33,WSW,256,0.0,0.0,58,0.00,,,-99.99,VWS V12.07,2013-01-27 02:58:00,
2013-01-26 22:03:00,34.3,21.3,30.33,WSW,256,0.0,0.0,59,0.00,,,-99.99,VWS V12.07,2013-01-27 03:03:00,
2013-01-26 22:08:00,34.3,21.1,30.34,WSW,256,0.0,0.0,58,0.00,,,-99.99,VWS V12.07,2013-01-27 03:08:00,
2013-01-26 22:13:00,34.2,21.0,30.34,WSW,256,0.0,0.0,58,0.00,,,-99.99,VWS V12.07,2013-01-27 03:13:00,
2013-01-26 22:18:00,34.3,21.4,30.34,WSW,256,0.0,0.0,59,0.00,,,-99.99,VWS V12.07,2013-01-27 03:18:00,
2013-01-26 22:23:00,34.2,21.0,30.34,WSW,256,0.0,0.0,58,0.00,,,-99.99,VWS V12.07,2013-01-27 03:23:00,
2013-01-26 22:28:00,34.2,21.1,30.34,WSW,256,0.0,0.0,58,0.00,,,-99.99,VWS V12.07,2013-01-27 03:28:00,
2013-01-26 22:33:00,34.1,21.1,30.34,WSW,256,0.0,0.0,58,0.00,,,-99.99,VWS V12.07,2013-01-27 03:33:00,
2013-01-26 22:38:00,34.1,21.4,30.34,WSW,256,0.0,0.0,59,0.00,,,-99.99,VWS V12.07,2013-01-27 03:38:00,
2013-01-26 22:43:00,34.0,21.7,30.34,WSW,256,0.0,0.0,60,0.00,,,-99.99,VWS V12.07,2013-01-27 03:43:00,
2013-01-26 22:48:00,34.0,21.8,30.35,WSW,256,0.0,0.0,60,0.00,,,-99.99,VWS V12.07,2013-01-27 03:48:00,
2013-01-26 22:53:00,34.0,22.8,30.35,WSW,256,0.0,0.0,63,0.00,,,-99.99,VWS V12.07,2013-01-27 03:53:00,
2013-01-26 22:58:00,34.0,23.3,30.35,WSW,256,0.0,0.0,65,0.00,,,-99.99,VWS V12.07,2013-01-27 03:58:00,
2013-01-26 23:03:00,34.0,23.9,30.35,WSW,256,0.0,0.0,66,0.00,,,-99.99,VWS V12.07,2013-01-27 04:03:00,
2013-01-26 23:08:00,34.0,23.9,30.35,WSW,256,0.0,0.0,66,0.00,,,-99.99,VWS V12.07,2013-01-27 04:08:00,
2013-01-26 23:13:00,34.1,22.9,30.35,WSW,256,0.0,0.0,63,0.00,,,-99.99,VWS V12.07,2013-01-27 04:13:00,
2013-01-26 23:18:00,34.2,22.1,30.35,WSW,256,0.0,0.0,61,0.00,,,-99.99,VWS V12.07,2013-01-27 04:18:00,
2013-01-26 23:23:00,34.3,21.7,30.35,WSW,256,0.0,0.0,60,0.00,,,-99.99,VWS V12.07,2013-01-27 04:23:00,
2013-01-26 23:28:00,34.5,21.7,30.35,WSW,256,0.0,0.0,59,0.00,,,-99.99,VWS V12.07,2013-01-27 04:28:00,
2013-01-26 23:33:00,34.4,22.1,30.36,WSW,256,0.0,0.0,60,0.00,,,-99.99,VWS V12.07,2013-01-27 04:33:00,
2013-01-26 23:38:00,34.4,22.5,30.35,WSW,256,0.0,0.0,61,0.00,,,-99.99,VWS V12.07,2013-01-27 04:38:00,
2013-01-26 23:43:00,34.4,21.1,30.36,WSW,256,0.0,0.0,58,0.00,,,-99.99,VWS V12.07,2013-01-27 04:43:00,
2013-01-26 23:48:00,34.5,20.9,30.35,WSW,256,0.0,0.0,57,0.00,,,-99.99,VWS V12.07,2013-01-27 04:48:00,
2013-01-26 23:53:00,34.6,21.9,30.35,WSW,256,0.0,0.0,59,0.00,,,-99.99,VWS V12.07,2013-01-27 04:53:00,
2013-01-26 23:58:00,34.4,22.3,30.35,WSW,256,0.0,0.0,61,0.00,,,-99.99,VWS V12.07,2013-01-27 04:58:00,